Content
SEND FEEDBACK

Daily
Averages
Monthly
Summary
Spain

USURBIL, SPAIN


Home > Europe > Spain
Elevation: 850 feet     Latitude: 43 18N     Longitude: 002 00W

WEATHER
 
SELECT A DAY
Number of Records: 189,587;   Date Range: 7/1/96 - 8/12/14
 
SHARE

PRINT THIS DATA

[ ← Previous Day ]
WEATHER ALMANAC - JANUARY 31, 2013
[ Next Day → ]
[ °C ]   °F
Weather ElementAverageHighLow
Temperature56.1 °F59 °F (11:00 am)50 °F (6:00 am)
Dewpoint51.6 °F53.6 °F (4:30 pm)48.2 °F (8:30 am)
Humidity85.2 %100 % (6:00 am)72 % (11:00 am)
Barometer30.36 in30.42 in (11:00 am)30.33 in (6:00 am)
Wind Speed2.4 mph5.8 mph (7:00 am)
Weather ElementAverage
Visibility6.1 mi
Wind DirectionENE (78.4 °)

Weather ElementTotal
Precipitation---
Heating Degree Days10.5 (Base 65)
Growing Degree Days4.5 (Base 50)
Averaged from 31 records on January 31, 2013
WEATHER CONDITIONS BREAKOUT
WIND DIRECTION BREAKOUT
WEATHER BY HOUR - JANUARY 31, 2013
[ °C ]   °F
Local TimeTemperatureDewpointHumidityBarometerVisibilityWind DirectionWind SpeedGust SpeedPrecipitationEventsConditions
6:00 AM50.0 °F50.0 °F100 %30.33 in6.2 miSouth (190°)4.6 mphMostly Cloudy
6:30 AM51.8 °F50.0 °F94 %30.33 in6.2 miVariable2.3 mphMostly Cloudy
7:00 AM51.8 °F50.0 °F94 %30.36 in6.2 miSouth (190°)5.8 mphMostly Cloudy
7:30 AM51.8 °F50.0 °F94 %30.36 in6.2 miSSW (210°)3.5 mphMostly Cloudy
8:00 AM51.8 °F50.0 °F94 %30.36 in6.2 miSSW (210°)3.5 mphScattered Clouds
8:30 AM53.6 °F48.2 °F82 %30.36 in6.2 miVariable1.2 mphMostly Cloudy
9:00 AM53.6 °F48.2 °F82 %30.36 in6.2 miVariable1.2 mphMostly Cloudy
9:30 AM55.4 °F50.0 °F82 %30.39 in6.2 miCalmMostly Cloudy
10:00 AM55.4 °F50.0 °F82 %30.39 inSSW (200°)3.5 mphClear
10:30 AM57.2 °F51.8 °F82 %30.39 inCalmClear
11:00 AM59.0 °F50.0 °F72 %30.42 inVariable1.2 mphClear
11:30 AM57.2 °F51.8 °F82 %30.42 inVariable2.3 mphClear
12:00 PM57.2 °F51.8 °F82 %30.42 inNorth (350°)3.5 mphClear
12:30 PM57.2 °F50.0 °F77 %30.42 inNNW (330°)5.8 mphClear
1:30 PM59.0 °F50.0 °F72 %30.39 inNorth (10°)3.5 mphClear
2:00 PM59.0 °F51.8 °F77 %30.39 in6.2 miVariable2.3 mphMostly Cloudy
2:30 PM57.2 °F51.8 °F82 %30.39 inNNE (20°)4.6 mphClear
3:00 PM59.0 °F51.8 °F77 %30.39 inNNE (20°)5.8 mphClear
3:30 PM59.0 °F51.8 °F77 %30.36 in6.2 miNNE (20°)4.6 mphMostly Cloudy
4:00 PM59.0 °F51.8 °F77 %30.36 inVariable2.3 mphClear
4:30 PM59.0 °F53.6 °F82 %30.36 inVariable2.3 mphClear
5:00 PM59.0 °F53.6 °F82 %30.36 inVariable1.2 mphClear
5:30 PM57.2 °F53.6 °F88 %30.33 inNNW (330°)3.5 mphClear
6:00 PM57.2 °F53.6 °F88 %30.33 inNorth (350°)4.6 mphClear
6:30 PM55.4 °F51.8 °F88 %30.33 inVariable1.2 mphClear
7:00 PM55.4 °F53.6 °F94 %30.33 in6.2 miCalmMostly Cloudy
7:30 PM57.2 °F53.6 °F88 %30.33 in5.0 miCalmMostly Cloudy
8:00 PM57.2 °F53.6 °F88 %30.36 in6.2 miCalmScattered Clouds
8:30 PM55.4 °F53.6 °F94 %30.33 in6.2 miCalmMostly Cloudy
9:00 PM55.4 °F53.6 °F94 %30.33 in6.2 miCalmMostly Cloudy
9:30 PM55.4 °F53.6 °F94 %30.33 in6.2 miCalmMostly Cloudy
Hourly data recorded from LESO, located miles away from Usurbil, Spain







STORIES FROM OUR PARTNERS